DW7721 Weather Reports


time (UTC)temp
F
wind
direction
speed
knots
gust
knots
rain 1hr
in
rain 24hr
in
rain mn
in
humidity
%
barometer
mb
20260506234519 71 332 1.7 7.8 0.00 0.00 0.00 72 1009.2
20260506233017 72 342 2.6 9.6 0.00 0.00 0.00 70 1009.1
20260506231523 73 55 2.6 10.4 0.00 0.00 0.00 70 1008.9
20260506230047 75 341 2.6 7.8 0.00 0.00 0.00 70 1008.8
20260506224556 75 347 3.5 13.0 0.00 0.00 0.00 70 1008.6
20260506223059 76 315 4.3 11.3 0.00 0.00 0.00 69 1008.2
20260506221550 77 51 4.3 10.4 0.00 0.00 0.00 69 1008.1
20260506220050 78 335 4.3 10.4 0.00 0.00 0.00 69 1007.9
20260506214544 79 316 2.6 10.4 0.00 0.00 0.00 69 1008.0
20260506213043 80 51 2.6 8.7 0.00 0.00 0.00 70 1007.8
20260506211550 81 34 2.6 10.4 0.00 0.00 0.00 70 1007.6
20260506210041 84 336 4.3 10.4 0.00 0.00 0.00 66 1007.8
20260506204548 86 321 0.0 4.3 0.00 0.00 0.00 67 1007.7
20260506203014 85 35 1.7 3.5 0.00 0.00 0.00 68 1007.8
20260506201512 85 233 0.9 3.5 0.00 0.00 0.00 70 1008.0
20260506200011 84 360 1.7 5.2 0.00 0.00 0.00 70 1008.1
20260506194506 85 16 0.0 5.2 0.00 0.00 0.00 69 1008.1
20260506193003 84 360 0.9 1.7 0.00 0.00 0.00 69 1008.1
20260506191503 83 18 0.0 5.2 0.00 0.00 0.00 71 1008.3
20260506190006 84 316 0.9 4.3 0.00 0.00 0.00 71 1008.4
20260506184519 84 110 0.0 2.6 0.00 0.00 0.00 71 1008.5
20260506183007 83 221 0.0 5.2 0.00 0.00 0.00 72 1008.8
20260506181505 83 246 0.9 5.2 0.00 0.00 0.00 72 1008.8
20260506180006 82 159 0.0 5.2 0.00 0.00 0.00 76 1009.1
20260506174508 80 146 0.0 3.5 0.00 0.00 0.00 78 1009.2
20260506173012 79 4 0.9 5.2 0.00 0.00 0.00 79 1009.4
20260506171507 78 113 0.0 3.5 0.00 0.00 0.00 81 1009.4
20260506170008 78 9 0.9 2.6 0.00 0.00 0.00 82 1009.6
20260506164603 77 22 0.0 4.3 0.00 0.00 0.00 83 1009.6
20260506163003 77 35 0.9 5.2 0.00 0.00 0.00 84 1009.6
20260506161612 76 22 0.0 3.5 0.00 0.00 0.00 85 1009.7
20260506160008 76 17 0.9 2.6 0.00 0.00 0.00 85 1009.6
20260506154503 76 25 0.0 1.7 0.00 0.00 0.00 86 1009.3
20260506153104 75 357 0.0 1.7 0.00 0.00 0.00 87 1009.1
20260506151505 75 27 0.0 0.9 0.00 0.00 0.00 87 1008.8
20260506150008 75 18 0.0 0.0 0.00 0.00 0.00 86 1008.7
20260506144516 75 7 0.0 0.9 0.00 0.00 0.00 85 1008.8
20260506143004 75 137 0.0 0.9 0.00 0.00 0.00 85 1008.6
20260506141504 75 183 0.0 0.0 0.00 0.00 0.00 86 1008.2
20260506140003 75 209 0.0 1.7 0.00 0.00 0.00 86 1008.0
20260506134502 75 168 0.0 0.9 0.00 0.00 0.00 86 1007.6
20260506133001 75 207 0.0 1.7 0.00 0.00 0.00 86 1007.4
20260506131602 75 214 0.9 3.5 0.00 0.00 0.00 86 1007.3
20260506130005 74 99 0.0 1.7 0.00 0.00 0.00 87 1007.2
20260506124505 74 240 0.0 0.0 0.00 0.00 0.00 87 1007.3
20260506123002 74 224 0.0 0.9 0.00 0.00 0.00 87 1007.3
20260506121604 74 186 0.0 0.0 0.00 0.00 0.00 86 1007.3
20260506120103 74 201 0.0 0.9 0.00 0.00 0.00 86 1007.1
20260506114550 74 229 0.0 1.7 0.00 0.00 0.00 86 1007.1
20260506113052 74 229 0.0 1.7 0.00 0.00 0.00 86 1007.1
20260506111547 74 225 0.0 1.7 0.00 0.00 0.00 86 1007.1
20260506110048 74 225 0.0 0.9 0.00 0.00 0.00 86 1007.2
20260506104556 75 197 0.0 1.7 0.00 0.00 0.00 86 1007.0
20260506103105 75 193 0.0 0.9 0.00 0.00 0.00 86 1007.0
20260506101557 75 212 0.0 1.7 0.00 0.00 0.00 85 1007.0
20260506100108 75 199 0.0 2.6 0.00 0.00 0.00 85 1006.9
20260506094605 75 210 0.0 2.6 0.00 0.00 0.00 85 1006.8
20260506093057 75 120 0.9 3.5 0.00 0.00 0.00 85 1006.7
20260506091505 75 143 0.0 2.6 0.00 0.00 0.00 85 1006.7
20260506090039 75 189 0.0 0.0 0.00 0.00 0.00 85 1006.8
20260506084551 75 176 0.0 3.5 0.00 0.00 0.00 85 1006.8
20260506083053 75 173 0.0 2.6 0.00 0.00 0.00 85 1006.8
20260506081550 75 211 0.0 2.6 0.00 0.00 0.00 84 1006.7
20260506073003 75 135 0.9 4.3 0.00 0.00 0.00 84 1007.2
20260506071501 75 352 0.0 7.0 0.00 0.00 0.00 84 1007.3
20260506061602 76 141 0.9 8.7 0.00 0.00 0.00 84 1007.4
20260506044555 76 210 0.9 5.2 0.00 0.00 0.00 84 1007.4
20260506043057 76 315 0.9 3.5 0.00 0.00 0.00 84 1007.4
20260506041553 76 229 0.0 1.7 0.00 0.00 0.00 84 1007.3
20260506040003 76 114 0.0 1.7 0.00 0.00 0.00 83 1007.1
20260506034511 77 131 0.0 4.3 0.00 0.00 0.00 83 1007.0
20260506033010 77 219 0.9 6.1 0.00 0.00 0.00 83 1006.6
20260506031516 77 193 0.0 5.2 0.00 0.00 0.00 82 1006.5
20260506030008 78 207 0.0 3.5 0.00 0.00 0.00 81 1006.2
20260506024509 78 170 0.0 7.0 0.00 0.00 0.00 80 1005.9
20260506023006 79 245 0.9 6.1 0.00 0.00 0.00 79 1005.8
20260506021505 80 134 0.0 3.5 0.00 0.00 0.00 78 1005.8
20260506020004 81 92 0.9 3.5 0.00 0.00 0.00 77 1005.5
20260506014504 81 135 0.0 2.6 0.00 0.00 0.00 75 1005.2
20260506013003 81 104 0.0 0.9 0.00 0.00 0.00 74 1005.0
20260506011510 82 95 0.0 0.9 0.00 0.00 0.00 73 1004.8
20260506010013 82 221 0.0 0.9 0.00 0.00 0.00 72 1004.6
20260506004506 83 226 0.0 1.7 0.00 0.00 0.00 72 1004.5
20260506003004 83 156 0.0 2.6 0.00 0.00 0.00 71 1004.4
20260506001502 84 224 0.0 2.6 0.00 0.00 0.00 71 1004.4